TimeMST,TemperatureF,Dew PointF,Humidity,Sea Level PressureIn,VisibilityMPH,Wind Direction,Wind SpeedMPH,Gust SpeedMPH,PrecipitationIn,Events,Conditions,WindDirDegrees,DateUTC
12:55 AM,55.4,21.2,26,29.88,10.0,West,16.1,-,N/A,,Partly Cloudy,260,2013-04-02 07:55:00
1:55 AM,53.6,19.4,26,29.86,10.0,SW,9.2,-,N/A,,Partly Cloudy,230,2013-04-02 08:55:00
2:55 AM,51.8,19.4,28,29.85,10.0,West,10.4,-,N/A,,Partly Cloudy,260,2013-04-02 09:55:00
3:55 AM,51.8,19.4,28,29.86,10.0,West,13.8,-,N/A,,Partly Cloudy,270,2013-04-02 10:55:00
4:55 AM,51.8,19.4,28,29.88,10.0,WSW,12.7,-,N/A,,Scattered Clouds,250,2013-04-02 11:55:00
5:55 AM,50.0,19.4,30,29.89,10.0,West,12.7,-,N/A,,Partly Cloudy,270,2013-04-02 12:55:00
6:55 AM,51.8,19.4,28,29.89,10.0,WSW,4.6,-,N/A,,Partly Cloudy,240,2013-04-02 13:55:00
7:55 AM,57.2,19.4,23,29.90,10.0,West,4.6,-,N/A,,Partly Cloudy,260,2013-04-02 14:55:00
8:55 AM,60.8,19.4,20,29.90,10.0,WNW,5.8,-,N/A,,Partly Cloudy,300,2013-04-02 15:55:00
9:55 AM,64.4,15.8,15,29.90,10.0,WNW,11.5,-,N/A,,Partly Cloudy,300,2013-04-02 16:55:00
10:55 AM,68.0,15.8,13,29.90,10.0,West,16.1,20.7,N/A,,Clear,270,2013-04-02 17:55:00
11:55 AM,69.8,14.0,12,29.88,10.0,West,13.8,18.4,N/A,,Partly Cloudy,280,2013-04-02 18:55:00
12:55 PM,71.6,17.6,13,29.86,10.0,WSW,11.5,23.0,N/A,,Partly Cloudy,250,2013-04-02 19:55:00
1:55 PM,71.6,6.8,8,29.84,10.0,NW,11.5,20.7,N/A,,Partly Cloudy,320,2013-04-02 20:55:00
2:55 PM,71.6,8.6,9,29.83,10.0,NW,11.5,24.2,N/A,,Partly Cloudy,320,2013-04-02 21:55:00
3:55 PM,71.6,8.6,9,29.83,10.0,NW,17.3,27.6,N/A,,Partly Cloudy,320,2013-04-02 22:55:00
4:55 PM,69.8,10.4,10,29.84,10.0,NW,17.3,-,N/A,,Scattered Clouds,320,2013-04-02 23:55:00
5:55 PM,68.0,12.2,12,29.87,10.0,NW,15.0,-,N/A,,Mostly Cloudy,310,2013-04-03 00:55:00
6:55 PM,62.6,12.2,14,29.88,10.0,NW,15.0,-,N/A,,Partly Cloudy,310,2013-04-03 01:55:00
7:55 PM,57.2,12.2,17,29.91,10.0,WSW,9.2,-,N/A,,Partly Cloudy,250,2013-04-03 02:55:00
8:55 PM,55.4,15.8,21,29.92,10.0,West,13.8,-,N/A,,Partly Cloudy,270,2013-04-03 03:55:00
9:55 PM,55.4,17.6,23,29.93,10.0,West,11.5,-,N/A,,Clear,260,2013-04-03 04:55:00
10:55 PM,53.6,17.6,24,29.94,10.0,WSW,12.7,-,N/A,,Clear,250,2013-04-03 05:55:00
11:55 PM,53.6,17.6,24,29.93,10.0,WSW,12.7,-,N/A,,Clear,250,2013-04-03 06:55:00